Year,Month,Day,Hour,Minute,Value (Times are PST for temperature in C)
2015,06,28,00,00,21.60
2015,06,28,00,01,21.60
2015,06,28,00,02,21.60
2015,06,28,00,03,21.60
2015,06,28,00,04,21.40
2015,06,28,00,05,21.40
2015,06,28,00,06,21.40
2015,06,28,00,07,21.40
2015,06,28,00,08,21.30
2015,06,28,00,09,21.30
2015,06,28,00,10,21.30
2015,06,28,00,11,21.30
2015,06,28,00,12,21.30
2015,06,28,00,13,21.30
2015,06,28,00,14,21.30
2015,06,28,00,15,21.30
2015,06,28,00,16,21.30
2015,06,28,00,17,21.30
2015,06,28,00,18,21.30
2015,06,28,00,19,21.30
2015,06,28,00,20,21.20
2015,06,28,00,21,21.20
2015,06,28,00,22,21.20
2015,06,28,00,23,21.20
2015,06,28,00,24,21.20
2015,06,28,00,25,21.20
2015,06,28,00,26,21.20
2015,06,28,00,27,21.10
2015,06,28,00,28,21.10
2015,06,28,00,29,21.10
2015,06,28,00,30,21.10
2015,06,28,00,31,21.10
2015,06,28,00,32,21.10
2015,06,28,00,33,21.10
2015,06,28,00,34,21.10
2015,06,28,00,35,21.00
2015,06,28,00,36,21.00
2015,06,28,00,37,21.00
2015,06,28,00,38,21.00
2015,06,28,00,39,21.10
2015,06,28,00,40,21.20
2015,06,28,00,41,21.30
2015,06,28,00,42,21.30
2015,06,28,00,43,21.40
2015,06,28,00,44,21.50
2015,06,28,00,45,21.60
2015,06,28,00,46,21.60
2015,06,28,00,47,21.60
2015,06,28,00,48,21.60
2015,06,28,00,49,21.60
2015,06,28,00,50,21.60
2015,06,28,00,51,21.60
2015,06,28,00,52,21.50
2015,06,28,00,53,21.40
2015,06,28,00,54,21.40
2015,06,28,00,55,21.40
2015,06,28,00,56,21.30
2015,06,28,00,57,21.30
2015,06,28,00,58,21.30
2015,06,28,00,59,21.30
2015,06,28,01,00,21.30
2015,06,28,01,01,21.20
2015,06,28,01,02,21.20
2015,06,28,01,03,21.20
2015,06,28,01,04,21.10
2015,06,28,01,05,21.10
2015,06,28,01,06,21.10
2015,06,28,01,07,21.10
2015,06,28,01,08,21.00
2015,06,28,01,09,21.00
2015,06,28,01,10,21.00
2015,06,28,01,11,21.00
2015,06,28,01,12,20.90
2015,06,28,01,13,20.90
2015,06,28,01,14,20.90
2015,06,28,01,15,20.90
2015,06,28,01,16,20.80
2015,06,28,01,17,20.80
2015,06,28,01,18,20.80
2015,06,28,01,19,20.70
2015,06,28,01,20,20.70
2015,06,28,01,21,20.70
2015,06,28,01,22,20.70
2015,06,28,01,23,20.70
2015,06,28,01,24,20.70
2015,06,28,01,25,20.70
2015,06,28,01,26,20.60
2015,06,28,01,27,20.60
2015,06,28,01,28,20.60
2015,06,28,01,29,20.60
2015,06,28,01,30,20.60
2015,06,28,01,31,20.60
2015,06,28,01,32,20.60
2015,06,28,01,33,20.50
2015,06,28,01,34,20.50
2015,06,28,01,35,20.50
2015,06,28,01,36,20.50
2015,06,28,01,37,20.50
2015,06,28,01,38,20.50
2015,06,28,01,39,20.50
2015,06,28,01,40,20.50
2015,06,28,01,41,20.50
2015,06,28,01,42,20.50
2015,06,28,01,43,20.50
2015,06,28,01,44,20.40
2015,06,28,01,45,20.40
2015,06,28,01,46,20.40
2015,06,28,01,47,20.40
2015,06,28,01,48,20.30
2015,06,28,01,49,20.30
2015,06,28,01,50,20.30
2015,06,28,01,51,20.20
2015,06,28,01,52,20.20
2015,06,28,01,53,20.20
2015,06,28,01,54,20.20
2015,06,28,01,55,20.20
2015,06,28,01,56,20.20
2015,06,28,01,57,20.10
2015,06,28,01,58,20.10
2015,06,28,01,59,20.00
2015,06,28,02,00,19.90
2015,06,28,02,01,19.90
2015,06,28,02,02,19.90
2015,06,28,02,03,19.90
2015,06,28,02,04,19.90
2015,06,28,02,05,19.90
2015,06,28,02,06,19.80
2015,06,28,02,07,19.80
2015,06,28,02,08,19.80
2015,06,28,02,09,19.80
2015,06,28,02,10,19.70
2015,06,28,02,11,19.70
2015,06,28,02,12,19.70
2015,06,28,02,13,19.70
2015,06,28,02,14,19.70
2015,06,28,02,15,19.60
2015,06,28,02,16,19.60
2015,06,28,02,17,19.60
2015,06,28,02,18,19.60
2015,06,28,02,19,19.60
2015,06,28,02,20,19.50
2015,06,28,02,21,19.50
2015,06,28,02,22,19.50
2015,06,28,02,23,19.50
2015,06,28,02,24,19.50
2015,06,28,02,25,19.50
2015,06,28,02,26,19.50
2015,06,28,02,27,19.40
2015,06,28,02,28,19.40
2015,06,28,02,29,19.40
2015,06,28,02,30,19.40
2015,06,28,02,31,19.40
2015,06,28,02,32,19.40
2015,06,28,02,33,19.40
2015,06,28,02,34,19.40
2015,06,28,02,35,19.40
2015,06,28,02,36,19.30
2015,06,28,02,37,19.30
2015,06,28,02,38,19.30
2015,06,28,02,39,19.30
2015,06,28,02,40,19.30
2015,06,28,02,41,19.30
2015,06,28,02,42,19.30
2015,06,28,02,43,19.30
2015,06,28,02,44,19.30
2015,06,28,02,45,19.30
2015,06,28,02,46,19.30
2015,06,28,02,47,19.30
2015,06,28,02,48,19.30
2015,06,28,02,49,19.20
2015,06,28,02,50,19.20
2015,06,28,02,51,19.20
2015,06,28,02,52,19.20
2015,06,28,02,53,19.20
2015,06,28,02,54,19.20
2015,06,28,02,55,19.20
2015,06,28,02,56,19.10
2015,06,28,02,57,19.10
2015,06,28,02,58,19.10
2015,06,28,02,59,19.10
2015,06,28,03,00,19.10
2015,06,28,03,01,19.10
2015,06,28,03,02,19.10
2015,06,28,03,03,19.10
2015,06,28,03,04,19.10
2015,06,28,03,05,19.10
2015,06,28,03,06,19.00
2015,06,28,03,07,18.90
2015,06,28,03,08,18.90
2015,06,28,03,09,18.90
2015,06,28,03,10,18.90
2015,06,28,03,11,18.90
2015,06,28,03,12,18.90
2015,06,28,03,13,18.90
2015,06,28,03,14,18.90
2015,06,28,03,15,18.90
2015,06,28,03,16,18.90
2015,06,28,03,17,18.90
2015,06,28,03,18,18.90
2015,06,28,03,19,18.80
2015,06,28,03,20,18.80
2015,06,28,03,21,18.80
2015,06,28,03,22,18.80
2015,06,28,03,23,18.80
2015,06,28,03,24,18.80
2015,06,28,03,25,18.80
2015,06,28,03,26,18.80
2015,06,28,03,27,18.80
2015,06,28,03,28,18.80
2015,06,28,03,29,18.80
2015,06,28,03,30,18.80
2015,06,28,03,31,18.80
2015,06,28,03,32,18.80
2015,06,28,03,33,18.80
2015,06,28,03,34,18.80
2015,06,28,03,35,18.80
2015,06,28,03,36,18.80
2015,06,28,03,37,18.80
2015,06,28,03,38,18.70
2015,06,28,03,39,18.70
2015,06,28,03,40,18.70
2015,06,28,03,41,18.70
2015,06,28,03,42,18.70
2015,06,28,03,43,18.70
2015,06,28,03,44,18.70
2015,06,28,03,45,18.70
2015,06,28,03,46,18.70
2015,06,28,03,47,18.70
2015,06,28,03,48,18.70
2015,06,28,03,49,18.70
2015,06,28,03,50,18.70
2015,06,28,03,51,18.60
2015,06,28,03,52,18.60
2015,06,28,03,53,18.60
2015,06,28,03,54,18.60
2015,06,28,03,55,18.60
2015,06,28,03,56,18.60
2015,06,28,03,57,18.60
2015,06,28,03,58,18.60
2015,06,28,03,59,18.60
2015,06,28,04,00,18.60
2015,06,28,04,01,18.60
2015,06,28,04,02,18.60
2015,06,28,04,03,18.60
2015,06,28,04,04,18.50
2015,06,28,04,05,18.50
2015,06,28,04,06,18.50
2015,06,28,04,07,18.50
2015,06,28,04,08,18.50
2015,06,28,04,09,18.50
2015,06,28,04,10,18.50
2015,06,28,04,11,18.40
2015,06,28,04,12,18.40
2015,06,28,04,13,18.40
2015,06,28,04,14,18.40
2015,06,28,04,15,18.40
2015,06,28,04,16,18.30
2015,06,28,04,17,18.30
2015,06,28,04,18,18.30
2015,06,28,04,19,18.30
2015,06,28,04,20,18.30
2015,06,28,04,21,18.30
2015,06,28,04,22,18.30
2015,06,28,04,23,18.30
2015,06,28,04,24,18.30
2015,06,28,04,25,18.20
2015,06,28,04,26,18.20
2015,06,28,04,27,18.20
2015,06,28,04,28,18.20
2015,06,28,04,29,18.20
2015,06,28,04,30,18.20
2015,06,28,04,31,18.20
2015,06,28,04,32,18.20
2015,06,28,04,33,18.20
2015,06,28,04,34,18.20
2015,06,28,04,35,18.20
2015,06,28,04,36,18.20
2015,06,28,04,37,18.20
2015,06,28,04,38,18.20
2015,06,28,04,39,18.20
2015,06,28,04,40,18.20
2015,06,28,04,41,18.20
2015,06,28,04,42,18.20
2015,06,28,04,43,18.10
2015,06,28,04,44,18.10
2015,06,28,04,45,18.10
2015,06,28,04,46,18.10
2015,06,28,04,47,18.00
2015,06,28,04,48,17.90
2015,06,28,04,49,17.90
2015,06,28,04,50,17.90
2015,06,28,04,51,17.90
2015,06,28,04,52,17.90
2015,06,28,04,53,17.90
2015,06,28,04,54,17.90
2015,06,28,04,55,17.90
2015,06,28,04,56,17.90
2015,06,28,04,57,17.90
2015,06,28,04,58,17.90
2015,06,28,04,59,17.90
2015,06,28,05,00,17.90
2015,06,28,05,01,17.90
2015,06,28,05,02,17.90
2015,06,28,05,03,17.80
2015,06,28,05,04,17.80
2015,06,28,05,05,17.80
2015,06,28,05,06,17.80
2015,06,28,05,07,17.80
2015,06,28,05,08,17.80
2015,06,28,05,09,17.70
2015,06,28,05,10,17.70
2015,06,28,05,11,17.70
2015,06,28,05,12,17.70
2015,06,28,05,13,17.70
2015,06,28,05,14,17.60
2015,06,28,05,15,17.60
2015,06,28,05,16,17.60
2015,06,28,05,17,17.60
2015,06,28,05,18,17.60
2015,06,28,05,19,17.60
2015,06,28,05,20,17.60
2015,06,28,05,21,17.60
2015,06,28,05,22,17.50
2015,06,28,05,23,17.50
2015,06,28,05,24,17.50
2015,06,28,05,25,17.50
2015,06,28,05,26,17.50
2015,06,28,05,27,17.50
2015,06,28,05,28,17.50
2015,06,28,05,29,17.50
2015,06,28,05,30,17.50
2015,06,28,05,31,17.50
2015,06,28,05,32,17.50
2015,06,28,05,33,17.50
2015,06,28,05,34,17.50
2015,06,28,05,35,17.50
2015,06,28,05,36,17.50
2015,06,28,05,37,17.50
2015,06,28,05,38,17.50
2015,06,28,05,39,17.50
2015,06,28,05,40,17.50
2015,06,28,05,41,17.50
2015,06,28,05,42,17.50
2015,06,28,05,43,17.50
2015,06,28,05,44,17.50
2015,06,28,05,45,17.50
2015,06,28,05,46,17.50
2015,06,28,05,47,17.50
2015,06,28,05,48,17.50
2015,06,28,05,49,17.50
2015,06,28,05,50,17.50
2015,06,28,05,51,17.50
2015,06,28,05,52,17.50
2015,06,28,05,53,17.60
2015,06,28,05,54,17.60
2015,06,28,05,55,17.60
2015,06,28,05,56,17.60
2015,06,28,05,57,17.70
2015,06,28,05,58,17.70
2015,06,28,05,59,17.70
2015,06,28,06,00,17.70
2015,06,28,06,01,17.80
2015,06,28,06,02,17.80
2015,06,28,06,03,17.80
2015,06,28,06,04,17.90
2015,06,28,06,05,17.90
2015,06,28,06,06,17.90
2015,06,28,06,07,18.00
2015,06,28,06,08,18.10
2015,06,28,06,09,18.10
2015,06,28,06,10,18.20
2015,06,28,06,11,18.20
2015,06,28,06,12,18.20
2015,06,28,06,13,18.20
2015,06,28,06,14,18.30
2015,06,28,06,15,18.30
2015,06,28,06,16,18.40
2015,06,28,06,17,18.40
2015,06,28,06,18,18.50
2015,06,28,06,19,18.50
2015,06,28,06,20,18.50
2015,06,28,06,21,18.60
2015,06,28,06,22,18.60
2015,06,28,06,23,18.70
2015,06,28,06,24,18.80
2015,06,28,06,25,18.80
2015,06,28,06,26,18.90
2015,06,28,06,27,18.90
2015,06,28,06,28,18.90
2015,06,28,06,29,19.00
2015,06,28,06,30,19.10
2015,06,28,06,31,19.10
2015,06,28,06,32,19.10
2015,06,28,06,33,19.10
2015,06,28,06,34,19.10
2015,06,28,06,35,19.20
2015,06,28,06,36,19.20
2015,06,28,06,37,19.30
2015,06,28,06,38,19.30
2015,06,28,06,39,19.40
2015,06,28,06,40,19.40
2015,06,28,06,41,19.50
2015,06,28,06,42,19.60
2015,06,28,06,43,19.60
2015,06,28,06,44,19.70
2015,06,28,06,45,19.80
2015,06,28,06,46,19.80
2015,06,28,06,47,19.90
2015,06,28,06,48,20.00
2015,06,28,06,49,20.10
2015,06,28,06,50,20.20
2015,06,28,06,51,20.20
2015,06,28,06,52,20.20
2015,06,28,06,53,20.30
2015,06,28,06,54,20.30
2015,06,28,06,55,20.40
2015,06,28,06,56,20.40
2015,06,28,06,57,20.40
2015,06,28,06,58,20.50
2015,06,28,06,59,20.50
2015,06,28,07,00,20.50
2015,06,28,07,01,20.40
2015,06,28,07,02,20.40
2015,06,28,07,03,20.40
2015,06,28,07,04,20.40
2015,06,28,07,05,20.40
2015,06,28,07,06,20.40
2015,06,28,07,07,20.40
2015,06,28,07,08,20.30
2015,06,28,07,09,20.30
2015,06,28,07,10,20.30
2015,06,28,07,11,20.30
2015,06,28,07,12,20.30
2015,06,28,07,13,20.30
2015,06,28,07,14,20.30
2015,06,28,07,15,20.30
2015,06,28,07,16,20.30
2015,06,28,07,17,20.30
2015,06,28,07,18,20.30
2015,06,28,07,19,20.30
2015,06,28,07,20,20.30
2015,06,28,07,21,20.30
2015,06,28,07,22,20.30
2015,06,28,07,23,20.40
2015,06,28,07,24,20.40
2015,06,28,07,25,20.40
2015,06,28,07,26,20.40
2015,06,28,07,27,20.40
2015,06,28,07,28,20.40
2015,06,28,07,29,20.40
2015,06,28,07,30,20.40
2015,06,28,07,31,20.50
2015,06,28,07,32,20.50
2015,06,28,07,33,20.50
2015,06,28,07,34,20.60
2015,06,28,07,35,20.60
2015,06,28,07,36,20.70
2015,06,28,07,37,20.70
2015,06,28,07,38,20.80
2015,06,28,07,39,20.90
2015,06,28,07,40,21.00
2015,06,28,07,41,21.10
2015,06,28,07,42,21.10
2015,06,28,07,43,21.20
2015,06,28,07,44,21.30
2015,06,28,07,45,21.30
2015,06,28,07,46,21.30
2015,06,28,07,47,21.40
2015,06,28,07,48,21.40
2015,06,28,07,49,21.50
2015,06,28,07,50,21.60
2015,06,28,07,51,21.60
2015,06,28,07,52,21.60
2015,06,28,07,53,21.70
2015,06,28,07,54,21.80
2015,06,28,07,55,21.90
2015,06,28,07,56,22.00
2015,06,28,07,57,22.00
2015,06,28,07,58,22.10
2015,06,28,07,59,22.20
2015,06,28,08,00,22.20
2015,06,28,08,01,22.30
2015,06,28,08,02,22.40
2015,06,28,08,03,22.40
2015,06,28,08,04,22.50
2015,06,28,08,05,22.50
2015,06,28,08,06,22.60
2015,06,28,08,07,22.60
2015,06,28,08,08,22.70
2015,06,28,08,09,22.80
2015,06,28,08,10,22.80
2015,06,28,08,11,22.90
2015,06,28,08,12,22.90
2015,06,28,08,13,22.90
2015,06,28,08,14,22.90
2015,06,28,08,15,23.00
2015,06,28,08,16,23.10
2015,06,28,08,17,23.10
2015,06,28,08,18,23.20
2015,06,28,08,19,23.30
2015,06,28,08,20,23.30
2015,06,28,08,21,23.30
2015,06,28,08,22,23.40
2015,06,28,08,23,23.40
2015,06,28,08,24,23.50
2015,06,28,08,25,23.60
2015,06,28,08,26,23.70
2015,06,28,08,27,23.70
2015,06,28,08,28,23.80
2015,06,28,08,29,23.90
2015,06,28,08,30,24.00
2015,06,28,08,31,24.10
2015,06,28,08,32,24.10
2015,06,28,08,33,24.10
2015,06,28,08,34,24.20
2015,06,28,08,35,24.20
2015,06,28,08,36,24.30
2015,06,28,08,37,24.30
2015,06,28,08,38,24.40
2015,06,28,08,39,24.40
2015,06,28,08,40,24.50
2015,06,28,08,41,24.50
2015,06,28,08,42,24.60
2015,06,28,08,43,24.70
2015,06,28,08,44,24.70
2015,06,28,08,45,24.80
2015,06,28,08,46,24.90
2015,06,28,08,47,24.90
2015,06,28,08,48,25.00
2015,06,28,08,49,25.10
2015,06,28,08,50,25.20
2015,06,28,08,51,25.30
2015,06,28,08,52,25.40
2015,06,28,08,53,25.50
2015,06,28,08,54,25.50
2015,06,28,08,55,25.60
2015,06,28,08,56,25.80
2015,06,28,08,57,25.90
2015,06,28,08,58,26.00
2015,06,28,08,59,26.10
2015,06,28,09,00,26.20
2015,06,28,09,01,26.30
2015,06,28,09,02,26.50
2015,06,28,09,03,26.60
2015,06,28,09,04,26.60
2015,06,28,09,05,26.60
2015,06,28,09,06,26.50
2015,06,28,09,07,26.30
2015,06,28,09,08,26.00
2015,06,28,09,09,25.90
2015,06,28,09,10,25.70
2015,06,28,09,11,25.50
2015,06,28,09,12,25.30
2015,06,28,09,13,25.20
2015,06,28,09,14,25.00
2015,06,28,09,15,24.90
2015,06,28,09,16,24.80
2015,06,28,09,17,24.80
2015,06,28,09,18,24.80
2015,06,28,09,19,24.80
2015,06,28,09,20,24.80
2015,06,28,09,21,24.80
2015,06,28,09,22,24.70
2015,06,28,09,23,24.70
2015,06,28,09,24,24.70
2015,06,28,09,25,24.60
2015,06,28,09,26,24.50
2015,06,28,09,27,24.40
2015,06,28,09,28,24.40
2015,06,28,09,29,24.40
2015,06,28,09,30,24.40
2015,06,28,09,31,24.40
2015,06,28,09,32,24.50
2015,06,28,09,33,24.50
2015,06,28,09,34,24.60
2015,06,28,09,35,24.60
2015,06,28,09,36,24.70
2015,06,28,09,37,24.80
2015,06,28,09,38,24.80
2015,06,28,09,39,24.90
2015,06,28,09,40,24.90
2015,06,28,09,41,24.90
2015,06,28,09,42,25.00
2015,06,28,09,43,25.10
2015,06,28,09,44,25.20
2015,06,28,09,45,25.30
2015,06,28,09,46,25.30
2015,06,28,09,47,25.40
2015,06,28,09,48,25.40
2015,06,28,09,49,25.40
2015,06,28,09,50,25.50
2015,06,28,09,51,25.50
2015,06,28,09,52,25.60
2015,06,28,09,53,25.70
2015,06,28,09,54,25.80
2015,06,28,09,55,25.90
2015,06,28,09,56,25.90
2015,06,28,09,57,26.00
2015,06,28,09,58,26.20
2015,06,28,09,59,26.40
2015,06,28,10,00,26.40
2015,06,28,10,01,26.50
2015,06,28,10,02,26.60
2015,06,28,10,03,26.60
2015,06,28,10,04,26.50
2015,06,28,10,05,26.40
2015,06,28,10,06,26.30
2015,06,28,10,07,26.20
2015,06,28,10,08,26.10
2015,06,28,10,09,26.00
2015,06,28,10,10,25.90
2015,06,28,10,11,25.90
2015,06,28,10,12,25.90
2015,06,28,10,13,26.00
2015,06,28,10,14,26.10
2015,06,28,10,15,26.10
2015,06,28,10,16,26.20
2015,06,28,10,17,26.20
2015,06,28,10,18,26.10
2015,06,28,10,19,26.10
2015,06,28,10,20,26.10
2015,06,28,10,21,26.20
2015,06,28,10,22,26.20
2015,06,28,10,23,26.20
2015,06,28,10,24,26.30
2015,06,28,10,25,26.20
2015,06,28,10,26,26.20
2015,06,28,10,27,26.10
2015,06,28,10,28,26.00
2015,06,28,10,29,25.80
2015,06,28,10,30,25.70
2015,06,28,10,31,25.60
2015,06,28,10,32,25.60
2015,06,28,10,33,25.60
2015,06,28,10,34,25.50
2015,06,28,10,35,25.50
2015,06,28,10,36,25.50
2015,06,28,10,37,25.40
2015,06,28,10,38,25.30
2015,06,28,10,39,25.30
2015,06,28,10,40,25.30
2015,06,28,10,41,25.20
2015,06,28,10,42,25.20
2015,06,28,10,43,25.20
2015,06,28,10,44,25.20
2015,06,28,10,45,25.20
2015,06,28,10,46,25.20
2015,06,28,10,47,25.20
2015,06,28,10,48,25.20
2015,06,28,10,49,25.20
2015,06,28,10,50,25.10
2015,06,28,10,51,25.10
2015,06,28,10,52,25.10
2015,06,28,10,53,25.00
2015,06,28,10,54,25.00
2015,06,28,10,55,25.00
2015,06,28,10,56,25.00
2015,06,28,10,57,25.00
2015,06,28,10,58,25.00
2015,06,28,10,59,25.00
2015,06,28,11,00,25.00
2015,06,28,11,01,25.00
2015,06,28,11,02,24.90
2015,06,28,11,03,24.90
2015,06,28,11,04,24.80
2015,06,28,11,05,24.70
2015,06,28,11,06,24.70
2015,06,28,11,07,24.60
2015,06,28,11,08,24.50
2015,06,28,11,09,24.50
2015,06,28,11,10,24.40
2015,06,28,11,11,24.20
2015,06,28,11,12,24.10
2015,06,28,11,13,24.10
2015,06,28,11,14,24.10
2015,06,28,11,15,24.10
2015,06,28,11,16,23.90
2015,06,28,11,17,23.90
2015,06,28,11,18,24.00
2015,06,28,11,19,24.10
2015,06,28,11,20,24.10
2015,06,28,11,21,24.10
2015,06,28,11,22,24.10
2015,06,28,11,23,24.10
2015,06,28,11,24,24.10
2015,06,28,11,25,24.10
2015,06,28,11,26,24.10
2015,06,28,11,27,24.10
2015,06,28,11,28,24.10
2015,06,28,11,29,24.10
2015,06,28,11,30,24.10
2015,06,28,11,31,24.20
2015,06,28,11,32,24.20
2015,06,28,11,33,24.20
2015,06,28,11,34,24.20
2015,06,28,11,35,24.30
2015,06,28,11,36,24.30
2015,06,28,11,37,24.30
2015,06,28,11,38,24.30
2015,06,28,11,39,24.30
2015,06,28,11,40,24.30
2015,06,28,11,41,24.30
2015,06,28,11,42,24.30
2015,06,28,11,43,24.30
2015,06,28,11,44,24.30
2015,06,28,11,45,24.40
2015,06,28,11,46,24.40
2015,06,28,11,47,24.40
2015,06,28,11,48,24.40
2015,06,28,11,49,24.40
2015,06,28,11,50,24.40
2015,06,28,11,51,24.40
2015,06,28,11,52,24.30
2015,06,28,11,53,24.30
2015,06,28,11,54,24.30
2015,06,28,11,55,24.40
2015,06,28,11,56,24.40
2015,06,28,11,57,24.40
2015,06,28,11,58,24.40
2015,06,28,11,59,24.40
2015,06,28,12,00,24.40
2015,06,28,12,01,24.50
2015,06,28,12,02,24.50
2015,06,28,12,03,24.50
2015,06,28,12,04,24.50
2015,06,28,12,05,24.60
2015,06,28,12,06,24.60
2015,06,28,12,07,24.70
2015,06,28,12,08,24.70
2015,06,28,12,09,24.70
2015,06,28,12,10,24.70
2015,06,28,12,11,24.80
2015,06,28,12,12,24.80
2015,06,28,12,13,24.90
2015,06,28,12,14,24.90
2015,06,28,12,15,24.90
2015,06,28,12,16,25.00
2015,06,28,12,17,25.00
2015,06,28,12,18,25.00
2015,06,28,12,19,25.00
2015,06,28,12,20,25.00
2015,06,28,12,21,25.00
2015,06,28,12,22,25.10
2015,06,28,12,23,25.10
2015,06,28,12,24,25.10
2015,06,28,12,25,25.10
2015,06,28,12,26,25.10
2015,06,28,12,27,25.10
2015,06,28,12,28,25.10
2015,06,28,12,29,25.20
2015,06,28,12,30,25.20
2015,06,28,12,31,25.20
2015,06,28,12,32,25.30
2015,06,28,12,33,25.30
2015,06,28,12,34,25.30
2015,06,28,12,35,25.30
2015,06,28,12,36,25.30
2015,06,28,12,37,25.20
2015,06,28,12,38,25.20
2015,06,28,12,39,25.20
2015,06,28,12,40,25.10
2015,06,28,12,41,25.10
2015,06,28,12,42,25.10
2015,06,28,12,43,25.10
2015,06,28,12,44,25.00
2015,06,28,12,45,25.00
2015,06,28,12,46,25.00
2015,06,28,12,47,25.00
2015,06,28,12,48,25.00
2015,06,28,12,49,25.00
2015,06,28,12,50,24.90
2015,06,28,12,51,24.90
2015,06,28,12,52,24.80
2015,06,28,12,53,24.80
2015,06,28,12,54,24.70
2015,06,28,12,55,24.70
2015,06,28,12,56,24.70
2015,06,28,12,57,24.60
2015,06,28,12,58,24.60
2015,06,28,12,59,24.60
2015,06,28,13,00,24.60
2015,06,28,13,01,24.70
2015,06,28,13,02,24.70
2015,06,28,13,03,24.70
2015,06,28,13,04,24.70
2015,06,28,13,05,24.70
2015,06,28,13,06,24.70
2015,06,28,13,07,24.70
2015,06,28,13,08,24.70
2015,06,28,13,09,24.60
2015,06,28,13,10,24.60
2015,06,28,13,11,24.60
2015,06,28,13,12,24.60
2015,06,28,13,13,24.60
2015,06,28,13,14,24.60
2015,06,28,13,15,24.60
2015,06,28,13,16,24.60
2015,06,28,13,17,24.60
2015,06,28,13,18,24.60
2015,06,28,13,19,24.60
2015,06,28,13,20,24.60
2015,06,28,13,21,24.60
2015,06,28,13,22,24.60
2015,06,28,13,23,24.60
2015,06,28,13,24,24.50
2015,06,28,13,25,24.50
2015,06,28,13,26,24.50
2015,06,28,13,27,24.50
2015,06,28,13,28,24.50
2015,06,28,13,29,24.50
2015,06,28,13,30,24.50
2015,06,28,13,31,24.50
2015,06,28,13,32,24.50
2015,06,28,13,33,24.60
2015,06,28,13,34,24.60
2015,06,28,13,35,24.60
2015,06,28,13,36,24.70
2015,06,28,13,37,24.70
2015,06,28,13,38,24.80
2015,06,28,13,39,24.80
2015,06,28,13,40,24.90
2015,06,28,13,41,24.90
2015,06,28,13,42,25.00
2015,06,28,13,43,25.00
2015,06,28,13,44,25.00
2015,06,28,13,45,25.00
2015,06,28,13,46,25.00
2015,06,28,13,47,25.00
2015,06,28,13,48,25.00
2015,06,28,13,49,24.90
2015,06,28,13,50,24.90
2015,06,28,13,51,24.90
2015,06,28,13,52,24.90
2015,06,28,13,53,24.90
2015,06,28,13,54,24.90
2015,06,28,13,55,24.90
2015,06,28,13,56,24.90
2015,06,28,13,57,24.90
2015,06,28,13,58,24.90
2015,06,28,13,59,24.90
2015,06,28,14,00,24.90
2015,06,28,14,01,24.90
2015,06,28,14,02,24.80
2015,06,28,14,03,24.80
2015,06,28,14,04,24.80
2015,06,28,14,05,24.80
2015,06,28,14,06,24.80
2015,06,28,14,07,24.80
2015,06,28,14,08,24.80
2015,06,28,14,09,24.80
2015,06,28,14,10,24.80
2015,06,28,14,11,24.80
2015,06,28,14,12,24.80
2015,06,28,14,13,24.80
2015,06,28,14,14,24.80
2015,06,28,14,15,24.80
2015,06,28,14,16,24.90
2015,06,28,14,17,24.90
2015,06,28,14,18,24.90
2015,06,28,14,19,25.00
2015,06,28,14,20,25.00
2015,06,28,14,21,25.10
2015,06,28,14,22,25.10
2015,06,28,14,23,25.20
2015,06,28,14,24,25.20
2015,06,28,14,25,25.30
2015,06,28,14,26,25.30
2015,06,28,14,27,25.30
2015,06,28,14,28,25.30
2015,06,28,14,29,25.40
2015,06,28,14,30,25.40
2015,06,28,14,31,25.40
2015,06,28,14,32,25.40
2015,06,28,14,33,25.40
2015,06,28,14,34,25.40
2015,06,28,14,35,25.40
2015,06,28,14,36,25.30
2015,06,28,14,37,25.30
2015,06,28,14,38,25.20
2015,06,28,14,39,25.20
2015,06,28,14,40,25.10
2015,06,28,14,41,25.10
2015,06,28,14,42,25.10
2015,06,28,14,43,25.10
2015,06,28,14,44,25.10
2015,06,28,14,45,25.10
2015,06,28,14,46,25.10
2015,06,28,14,47,25.10
2015,06,28,14,48,25.10
2015,06,28,14,49,25.10
2015,06,28,14,50,25.10
2015,06,28,14,51,25.10
2015,06,28,14,52,25.10
2015,06,28,14,53,25.00
2015,06,28,14,54,25.00
2015,06,28,14,55,25.00
2015,06,28,14,56,25.00
2015,06,28,14,57,25.00
2015,06,28,14,58,25.00
2015,06,28,14,59,25.00
2015,06,28,15,00,25.00
2015,06,28,15,01,25.00
2015,06,28,15,02,24.90
2015,06,28,15,03,24.90
2015,06,28,15,04,24.90
2015,06,28,15,05,24.90
2015,06,28,15,06,24.90
2015,06,28,15,07,24.80
2015,06,28,15,08,24.80
2015,06,28,15,09,24.80
2015,06,28,15,10,24.80
2015,06,28,15,11,24.80
2015,06,28,15,12,24.80
2015,06,28,15,13,24.80
2015,06,28,15,14,24.70
2015,06,28,15,15,24.50
2015,06,28,15,16,24.20
2015,06,28,15,17,24.00
2015,06,28,15,18,23.70
2015,06,28,15,19,23.40
2015,06,28,15,20,23.20
2015,06,28,15,21,22.90
2015,06,28,15,22,22.80
2015,06,28,15,23,22.60
2015,06,28,15,24,22.40
2015,06,28,15,25,22.20
2015,06,28,15,26,22.00
2015,06,28,15,27,21.90
2015,06,28,15,28,21.80
2015,06,28,15,29,21.70
2015,06,28,15,30,21.60
2015,06,28,15,31,21.60
2015,06,28,15,32,21.50
2015,06,28,15,33,21.40
2015,06,28,15,34,21.30
2015,06,28,15,35,21.30
2015,06,28,15,36,21.30
2015,06,28,15,37,21.30
2015,06,28,15,38,21.30
2015,06,28,15,39,21.30
2015,06,28,15,40,21.30
2015,06,28,15,41,21.30
2015,06,28,15,42,21.40
2015,06,28,15,43,21.40
2015,06,28,15,44,21.50
2015,06,28,15,45,21.60
2015,06,28,15,46,21.60
2015,06,28,15,47,21.70
2015,06,28,15,48,21.70
2015,06,28,15,49,21.80
2015,06,28,15,50,21.80
2015,06,28,15,51,21.90
2015,06,28,15,52,21.90
2015,06,28,15,53,21.90
2015,06,28,15,54,22.00
2015,06,28,15,55,22.00
2015,06,28,15,56,22.10
2015,06,28,15,57,22.10
2015,06,28,15,58,22.20
2015,06,28,15,59,22.20
2015,06,28,16,00,22.30
2015,06,28,16,01,22.30
2015,06,28,16,02,22.30
2015,06,28,16,03,22.40
2015,06,28,16,04,22.50
2015,06,28,16,05,22.50
2015,06,28,16,06,22.50
2015,06,28,16,07,22.60
2015,06,28,16,08,22.60
2015,06,28,16,09,22.70
2015,06,28,16,10,22.70
2015,06,28,16,11,22.70
2015,06,28,16,12,22.70
2015,06,28,16,13,22.70
2015,06,28,16,14,22.70
2015,06,28,16,15,22.70
2015,06,28,16,16,22.70
2015,06,28,16,17,22.70
2015,06,28,16,18,22.80
2015,06,28,16,19,22.80
2015,06,28,16,20,22.80
2015,06,28,16,21,22.80
2015,06,28,16,22,22.80
2015,06,28,16,23,22.80
2015,06,28,16,24,22.70
2015,06,28,16,25,22.80
2015,06,28,16,26,22.80
2015,06,28,16,27,22.80
2015,06,28,16,28,22.80
2015,06,28,16,29,22.80
2015,06,28,16,30,22.80
2015,06,28,16,31,22.80
2015,06,28,16,32,22.90
2015,06,28,16,33,22.90
2015,06,28,16,34,22.90
2015,06,28,16,35,22.90
2015,06,28,16,36,22.90
2015,06,28,16,37,23.00
2015,06,28,16,38,23.10
2015,06,28,16,39,23.10
2015,06,28,16,40,23.20
2015,06,28,16,41,23.20
2015,06,28,16,42,23.20
2015,06,28,16,43,23.30
2015,06,28,16,44,23.30
2015,06,28,16,45,23.30
2015,06,28,16,46,23.30
2015,06,28,16,47,23.30
2015,06,28,16,48,23.30
2015,06,28,16,49,23.30
2015,06,28,16,50,23.30
2015,06,28,16,51,23.40
2015,06,28,16,52,23.40
2015,06,28,16,53,23.50
2015,06,28,16,54,23.60
2015,06,28,16,55,23.60
2015,06,28,16,56,23.60
2015,06,28,16,57,23.60
2015,06,28,16,58,23.60
2015,06,28,16,59,23.60
2015,06,28,17,00,23.60
2015,06,28,17,01,23.60
2015,06,28,17,02,23.60
2015,06,28,17,03,23.60
2015,06,28,17,04,23.70
2015,06,28,17,05,23.70
2015,06,28,17,06,23.70
2015,06,28,17,07,23.70
2015,06,28,17,08,23.70
2015,06,28,17,09,23.70
2015,06,28,17,10,23.70
2015,06,28,17,11,23.70
2015,06,28,17,12,23.70
2015,06,28,17,13,23.70
2015,06,28,17,14,23.70
2015,06,28,17,15,23.70
2015,06,28,17,16,23.70
2015,06,28,17,17,23.70
2015,06,28,17,18,23.70
2015,06,28,17,19,23.70